Location: Asheville, NC
(35.6000°N, 82.5500°W)
Time: 22:21:28
(UTC-04:00)

AO-7 - Pass Details

Date: 12 January 2018
Orbit: 1440 x 1458 km, 101.7° (Epoch: 20 July)

Event Time Altitude Azimuth Distance (km) Brightness Sun altitude
Rises 04:50:34 0° 11° (N) 4,569 ? -33.9°
Reaches altitude 10° 04:53:25 10° 8° (N) 3,587 ? -33.3°
Enters shadow 04:58:42 40° 345° (NNW) 2,027 ? -32.2°
